Location: Evansville
(37.9747°N, 87.5558°W)
Time: 03:30:21
(UTC-06:00)

BlueWalker 3 - Pass Details

Date: 20 December 2025
Orbit: 451 x 463 km, 53.2° (Epoch: 18 January)

Event Time Altitude Azimuth Distance (km) Brightness Sun altitude
Rises 04:46:52 0° 176° (S) 2,441 5.6 -25.8°
Reaches altitude 10° 04:50:55 10° 130° (SE) 1,580 5.2 -25.0°
Maximum altitude 04:51:18 10° 124° (SE) 1,572 5.3 -24.9°
Drops below altitude 10° 04:51:40 10° 118° (ESE) 1,581 5.4 -24.9°
Sets 04:55:46 0° 72° (ENE) 2,466 6.4 -24.1°
